This demonstration page uses our WeatherBlox Daily Observations layout. Learn more.

Left ArrowRight Arrow

Hourly Observations for November 29, 2016

Temp ( °F °C ) Dew Point ( °F °C ) Humidity (%) Winds ( mph kmh ) Pressure ( in mb ) Visibility ( mi km ) Precip ( " mm )
12:53 am 00:53 Cloudy 68 20 55 12.8 63 63 S 18 30 29.70 1006 10 16 0.00 0.00
1:53 am 01:53 Cloudy with Heavy Rain 66 18.9 58 14.4 75 75 VRB 6 9 29.70 1006 3 4 0.11 2.79
2:10 am 02:10 Cloudy with Light Rain 64 18 57 14 78 78 VRB 3 6 29.74 1007 4 6 0.00 0.00
2:36 am 02:36 Cloudy with Heavy Rain 64 17.8 59 15 84 84 W 15 24 29.77 1008 2 3 0.30 7.62
2:43 am 02:43 Cloudy with Heavy Rain 63 17.2 60 15.6 90 90 VRB 7 11 29.74 1007 1 2 0.53 13.46
2:53 am 02:53 Cloudy with Heavy Rain 62 16.7 60 15.6 93 93 N 5 7 29.72 1007 2 3 0.62 15.75
3:09 am 03:09 Cloudy with Heavy Rain 62 16.7 60 15.6 93 93 Calm 29.77 1008 2 3 0.15 3.81
3:17 am 03:17 Cloudy with Heavy Rain 62 16.7 60 15.6 93 93 ESE 7 11 29.74 1007 2 3 0.23 5.84
3:43 am 03:43 Cloudy with Rain 62 16.7 60 15.6 93 93 VRB 3 6 29.74 1007 5 8 0.44 11.18
3:53 am 03:53 Cloudy with Rain 63 17.2 60 15.6 90 90 Calm 29.72 1007 5 8 0.46 11.68
4:11 am 04:11 Cloudy with Heavy Rain 62 16.7 60 15.6 93 93 Calm 29.74 1007 4 6 0.05 1.27
4:22 am 04:22 Cloudy with Heavy Rain 63 17 61 16 94 94 Calm 29.74 1007 2 3 0.00 0.00
4:40 am 04:40 Cloudy with Heavy Rain 61 16 59 15 94 94 NW 15 24 29.77 1008 2 3 0.00 0.00
4:46 am 04:46 Cloudy with Rain 57 14 55 13 94 94 NNW 13 20 29.77 1008 3 5 0.00 0.00
4:53 am 04:53 Cloudy with Light Rain 59 15 56 13.3 90 90 NNW 9 15 29.76 1008 8 13 0.27 6.86
5:33 am 05:33 Cloudy with Heavy Rain 57 13.9 53 11.7 87 87 NW 9 15 29.83 1010 4 6 0.06 1.52
5:42 am 05:42 Cloudy with Rain 55 13 52 11 88 88 VRB 5 7 29.83 1010 6 10 0.00 0.00
5:53 am 05:53 Cloudy with Light Rain 55 12.8 52 11.1 90 90 NNE 7 11 29.80 1009 7 11 0.08 2.03
6:04 am 06:04 Cloudy with Light Rain 55 13 52 11 88 88 N 5 7 29.80 1009 10 16 0.00 0.00
6:30 am 06:30 Cloudy with Heavy Rain 54 12 52 11 94 94 WNW 3 6 29.83 1010 3 4 0.00 0.00
6:38 am 06:38 Cloudy with Heavy Rain 54 12 52 11 94 94 WNW 5 7 29.83 1010 4 6 0.00 0.00
6:50 am 06:50 Cloudy with Heavy Rain 54 12 52 11 94 94 Calm 29.83 1010 4 6 0.00 0.00
6:53 am 06:53 Cloudy with Heavy Rain 54 12.2 52 11.1 93 93 Calm 29.82 1010 4 6 0.17 4.32
7:32 am 07:32 Cloudy with Rain 54 12 52 11 94 94 Calm 29.83 1010 4 6 0.00 0.00
7:53 am 07:53 Cloudy with Heavy Rain 54 12.2 52 11.1 93 93 Calm 29.84 1011 3 4 0.14 3.56
7:56 am 07:56 Cloudy with Heavy Rain 54 12 52 11 94 94 WSW 3 6 29.88 1012 2 3 0.00 0.00
8:03 am 08:03 Cloudy with Rain 54 12 52 11 94 94 Calm 29.88 1012 2 3 0.00 0.00
8:11 am 08:11 Cloudy with Rain 54 12.2 52 11.1 93 93 Calm 29.88 1012 2 3 0.06 1.52
8:53 am 08:53 Cloudy with Light Rain 56 13.3 53 11.7 90 90 SE 7 11 29.83 1010 4 6 0.12 3.05
9:01 am 09:01 Cloudy with Light Rain 56 13.3 54 12.2 93 93 SE 6 9 29.85 1011 3 5 0.00 0.03
9:53 am 09:53 Cloudy with Mist and Fog 59 15 56 13.3 90 90 Calm 29.85 1011 3 5 0.01 0.25
10:53 am 10:53 Cloudy with Mist and Fog 62 16.7 59 15 90 90 SSW 6 9 29.86 1011 6 10 0.00 0.00
11:53 am 11:53 Cloudy 63 17.2 59 15 87 87 SW 3 6 29.87 1011 7 11 0.00 0.00
12:53 pm 12:53 Cloudy 65 18.3 60 15.6 84 84 S 6 9 29.86 1011 10 16 0.00 0.00
1:29 pm 13:29 Cloudy with Light Rain 65 18.3 61 16.1 87 87 VRB 6 9 29.88 1012 10 16 0.00 0.03
1:53 pm 13:53 Cloudy 66 18.9 61 16.1 84 84 WSW 3 6 29.86 1011 10 16 0.00 0.03
2:53 pm 14:53 Cloudy 67 19.4 62 16.7 84 84 SSE 3 6 29.85 1011 10 16 0.00 0.00
3:42 pm 15:42 Cloudy 68 20 63 17 83 83 SSW 3 6 29.83 1010 10 16 0.00 0.00
3:53 pm 15:53 Cloudy 68 20 63 17.2 84 84 SSW 3 6 29.85 1011 10 16 0.00 0.00
4:53 pm 16:53 Cloudy 68 20 63 17.2 84 84 SE 3 6 29.86 1011 10 16 0.00 0.00
5:53 pm 17:53 Cloudy with Light Rain 68 20 63 17.2 84 84 Calm 29.87 1011 10 16 0.00 0.03
6:53 pm 18:53 Cloudy with Light Rain 65 18.3 63 17.2 93 93 N 3 6 29.87 1012 7 11 0.03 0.76
7:51 pm 19:51 Cloudy 66 19 63 17 88 88 E 3 6 29.88 1012 9 14 0.00 0.03
7:53 pm 19:53 Cloudy 66 18.9 64 17.8 93 93 E 3 6 29.88 1012 10 16 0.00 0.03
8:53 pm 20:53 Mostly Cloudy 66 18.9 63 17.2 90 90 SE 3 6 29.85 1011 10 16 0.00 0.00
9:31 pm 21:31 Mostly Cloudy 68 20 64 17.8 87 87 S 7 11 29.85 1011 10 16 0.00 0.00
9:53 pm 21:53 Mostly Cloudy 68 20 64 17.8 87 87 S 9 15 29.85 1011 10 16 0.00 0.00
10:53 pm 22:53 Mostly Cloudy 68 20 64 17.8 87 87 S 8 13 29.85 1011 10 16 0.00 0.00
11:03 pm 23:03 Partly Cloudy 68 20 64 17.8 87 87 S 7 11 29.85 1011 10 16 0.00 0.00
11:53 pm 23:53 Partly Cloudy 69 20.6 64 17.8 84 84 SSW 7 11 29.85 1011 10 16 0.00 0.00

Powered by AerisWeather